EW5586 Weather Reports


time (UTC)temp
F
wind
direction
speed
knots
gust
knots
rain 1hr
in
rain 24hr
in
rain mn
in
humidity
%
barometer
mb
20260510211317 52 223 7.8 16.5 0.00 0.11 0.00 63 1014.3
20260510210817 53 205 9.6 16.5 0.00 0.11 0.00 65 1014.3
20260510210318 54 227 7.8 16.5 0.00 0.11 0.00 59 1014.2
20260510205817 54 0 7.0 13.0 0.00 0.11 0.00 57 1014.0
20260510205318 54 205 7.8 15.6 0.00 0.11 0.00 59 1013.9
20260510204816 53 236 8.7 15.6 0.00 0.11 0.00 60 1013.9
20260510204309 53 219 9.6 17.4 0.00 0.11 0.00 62 1013.8
20260510203257 51 236 12.2 18.2 0.00 0.11 0.00 66 1013.8
20260510202751 51 223 12.2 18.2 0.00 0.11 0.00 70 1013.7
20260510202244 51 183 13.0 17.4 0.00 0.11 0.00 72 1013.7
20260510201740 51 0 13.9 17.4 0.00 0.11 0.00 71 1013.7
20260510201232 51 205 13.0 18.2 0.00 0.11 0.00 72 1013.7
20260510200726 51 0 12.2 16.5 0.00 0.11 0.00 72 1013.6
20260510200221 51 172 12.2 17.4 0.00 0.11 0.00 71 1013.6
20260510195716 52 203 13.0 17.4 0.00 0.11 0.00 70 1013.6
20260510195208 52 0 13.9 18.2 0.00 0.11 0.00 71 1013.6
20260510194703 52 232 13.9 18.2 0.00 0.11 0.00 69 1013.6
20260510194156 51 187 13.0 20.9 0.00 0.11 0.00 72 1013.7
20260510192638 51 197 13.0 17.4 0.00 0.11 0.00 72 1013.7
20260510192132 51 205 13.0 17.4 0.00 0.11 0.00 71 1013.6
20260510191626 51 0 13.0 16.5 0.00 0.11 0.00 71 1013.6
20260510191121 51 215 13.0 20.9 0.00 0.11 0.00 71 1013.6
20260510190614 51 197 13.9 21.7 0.00 0.11 0.00 69 1013.6
20260510190110 52 219 12.2 21.7 0.00 0.11 0.00 66 1013.5
20260510185602 52 0 12.2 20.9 0.00 0.11 0.00 67 1013.4
20260510184044 51 197 13.9 20.0 0.00 0.11 0.00 69 1013.2
20260510183540 52 217 13.0 18.2 0.00 0.11 0.00 69 1013.2
20260510183041 51 225 13.0 20.9 0.00 0.11 0.00 65 1013.1
20260510182540 52 0 13.9 20.9 0.00 0.11 0.00 65 1013.1
20260510182041 52 0 12.2 20.0 0.00 0.11 0.00 63 1012.9
20260510181040 53 0 13.0 20.0 0.00 0.11 0.00 59 1012.8
20260510180540 54 205 10.4 23.5 0.00 0.11 0.00 57 1012.6
20260510180041 55 216 7.8 23.5 0.00 0.11 0.00 59 1012.5
20260510175540 54 195 7.8 16.5 0.00 0.11 0.00 58 1012.5
20260510175040 54 223 11.3 20.0 0.00 0.11 0.00 61 1012.4
20260510174541 53 0 13.0 20.0 0.00 0.11 0.00 61 1012.4
20260510174041 54 0 13.0 21.7 0.00 0.11 0.00 61 1012.5
20260510173541 54 213 13.0 21.7 0.00 0.11 0.00 58 1012.4
20260510173041 55 226 11.3 20.0 0.00 0.11 0.00 59 1012.4
20260510172540 54 227 11.3 17.4 0.00 0.11 0.00 62 1012.3
20260510171540 53 0 12.2 19.1 0.00 0.11 0.00 64 1012.3
20260510171035 52 192 12.2 20.0 0.00 0.11 0.00 67 1012.3
20260510170528 52 219 12.2 20.0 0.00 0.11 0.00 69 1012.3
20260510170022 52 175 12.2 16.5 0.00 0.11 0.00 71 1012.3
20260510165010 51 192 13.0 18.2 0.00 0.11 0.00 71 1012.3
20260510164505 51 0 13.0 18.2 0.00 0.11 0.00 71 1012.3
20260510163452 51 216 12.2 20.9 0.00 0.11 0.00 70 1012.2
20260510162945 52 202 10.4 17.4 0.00 0.11 0.00 67 1012.2
20260510162443 52 0 11.3 16.5 0.00 0.11 0.00 68 1012.0
20260510161943 53 230 7.8 17.4 0.00 0.11 0.00 64 1012.2
20260510160943 56 201 7.0 19.1 0.00 0.11 0.00 46 1012.1
20260510155943 56 219 7.0 18.2 0.00 0.11 0.00 48 1012.0
20260510154942 56 222 3.5 13.0 0.00 0.11 0.00 52 1011.9
20260510154443 56 221 4.3 17.4 0.00 0.11 0.00 52 1011.8
20260510153943 56 218 3.5 17.4 0.00 0.11 0.00 50 1011.8
20260510153443 56 209 0.9 8.7 0.00 0.11 0.00 54 1011.7
20260510152943 56 171 3.5 14.8 0.00 0.11 0.00 55 1011.6
20260510152443 55 230 5.2 14.8 0.00 0.11 0.00 52 1011.7
20260510150934 0 0.0 0.0 0.00 0.11 0.00 1011.5
20260510145846 0 0.0 0.0 0.00 0.11 0.00 1011.4
20260510145333 0 0.0 0.0 0.00 0.11 0.00 1011.3
20260510144746 0 0.0 0.0 0.00 0.11 0.00 1011.2
20260510144243 0 0.0 0.0 0.00 0.11 0.00 1011.2
20260510143647 0 0.0 0.0 0.00 0.11 0.00 1011.3
20260510143144 0 0.0 0.0 0.00 0.11 0.00 1011.1
20260510142047 0 0.0 0.0 0.00 0.11 0.00 1011.1
20260510141546 0 0.0 0.0 0.00 0.11 0.00 1011.1
20260510141039 0 0.0 0.0 0.00 0.11 0.00 1011.1
20260510140448 0 0.0 0.0 0.00 0.11 0.00 1011.0
20260510135944 0 0.0 0.0 0.00 0.11 0.00 1011.1
20260510135433 0 0.0 0.0 0.00 0.11 0.00 1011.0
20260510134846 0 0.0 0.0 0.00 0.11 0.00 1011.0
20260510134344 0 0.0 0.0 0.00 0.11 0.00 1011.0
20260510133754 0 0.0 0.0 0.00 0.11 0.00 1011.0
20260510133249 0 0.0 0.0 0.00 0.11 0.00 1010.9
20260510132225 0 0.0 0.0 0.00 0.11 0.00 1010.8
20260510131647 0 0.0 0.0 0.00 0.11 0.00 1010.9
20260510131144 0 0.0 0.0 0.00 0.11 0.00 1010.8
20260510130642 0 0.0 0.0 0.00 0.11 0.00 1010.8
20260510130143 0 0.0 0.0 0.00 0.11 0.00 1010.8
20260510125638 0 0.0 0.0 0.00 0.11 0.00 1010.7
20260510124538 0 0.0 0.0 0.00 0.11 0.00 1010.6
20260510124027 0 0.0 0.0 0.00 0.11 0.00 1010.6
20260510123443 0 0.0 0.0 0.00 0.11 0.00 1010.6
20260510122942 0 0.0 0.0 0.00 0.11 0.00 1010.5
20260510122348 0 0.0 0.0 0.00 0.11 0.00 1010.4
20260510121349 0 0.0 0.0 0.00 0.11 0.00 1010.3
20260510120842 0 0.0 0.0 0.00 0.11 0.00 1010.3
20260510120252 0 0.0 0.0 0.00 0.11 0.00 1010.2
20260510115746 0 0.0 0.0 0.00 0.11 0.00 1010.2
20260510115236 0 0.0 0.0 0.00 0.11 0.00 1010.1
20260510114648 0 0.0 0.0 0.00 0.11 0.00 1010.1
20260510114144 0 0.0 0.0 0.00 0.11 0.00 1009.9
20260510113552 0 0.0 0.0 0.00 0.11 0.00 1009.9
20260510113043 0 0.0 0.0 0.00 0.11 0.00 1009.8
20260510112539 0 0.0 0.0 0.00 0.11 0.00 1009.5
20260510111946 0 0.0 0.0 0.00 0.11 0.00 1009.5
20260510111443 0 0.0 0.0 0.00 0.11 0.00 1009.3
20260510110942 0 0.0 0.0 0.00 0.11 0.00 1009.2
20260510110442 0 0.0 0.0 0.00 0.11 0.00 1009.1
20260510105934 0 0.0 0.0 0.00 0.11 0.00 1008.9
20260510105434 0 0.0 0.0 0.00 0.11 0.00 1008.8
20260510104847 0 0.0 0.0 0.00 0.11 0.00 1008.7
20260510104342 0 0.0 0.0 0.00 0.11 0.00 1008.5
20260510103835 0 0.0 0.0 0.00 0.11 0.00 1008.4
20260510103244 0 0.0 0.0 0.00 0.11 0.00 1008.3
20260510102742 0 0.0 0.0 0.00 0.11 0.00 1008.2
20260510102240 0 0.0 0.0 0.00 0.11 0.00 1008.1
20260510101645 0 0.0 0.0 0.00 0.11 0.00 1008.0
20260510101144 0 0.0 0.0 0.00 0.11 0.00 1007.9
20260510100546 0 0.0 0.0 0.00 0.11 0.00 1007.8
20260510100047 0 0.0 0.0 0.00 0.11 0.00 1007.7
20260510095544 0 0.0 0.0 0.00 0.11 0.00 1007.9
20260510095044 0 0.0 0.0 0.00 0.11 0.00 1007.6
20260510094545 0 0.0 0.0 0.00 0.11 0.00 1007.4
20260510093538 0 0.0 0.0 0.00 0.11 0.00 1007.3
20260510093030 0 0.0 0.0 0.00 0.11 0.00 1007.3
20260510092446 0 0.0 0.0 0.00 0.11 0.00 1007.4
20260510091946 0 0.0 0.0 0.00 0.11 0.00 1007.0
20260510091444 0 0.0 0.0 0.00 0.11 0.00 1007.1
20260510090935 0 0.0 0.0 0.00 0.11 0.00 1007.1
20260510090340 0 0.0 0.0 0.00 0.11 0.00 1007.1
20260510085748 49 0.0 0.0 0.00 0.11 0.00 93 1007.1
20260510085237 49 201 5.2 6.1 0.00 0.11 0.00 93 1007.1
20260510084725 49 201 5.2 7.8 0.00 0.11 0.00 93 1007.0
20260510084210 49 201 6.1 8.7 0.00 0.11 0.00 93 1006.9
20260510083204 50 223 4.3 7.8 0.00 0.11 0.00 92 1007.0
20260510082703 50 0 4.3 7.8 0.00 0.11 0.00 93 1006.8
20260510082156 50 207 5.2 8.7 0.00 0.11 0.00 93 1007.0
20260510081650 51 207 5.2 8.7 0.00 0.11 0.00 93 1007.0
20260510081146 51 211 5.2 11.3 0.00 0.11 0.00 93 1007.0
20260510080143 51 198 6.1 12.2 0.00 0.11 0.00 93 1007.0
20260510075644 51 212 5.2 12.2 0.00 0.11 0.00 93 1006.8
20260510075142 51 235 4.3 8.7 0.00 0.11 0.00 93 1006.9
20260510074642 51 194 4.3 10.4 0.00 0.11 0.00 93 1006.8
20260510073639 50 235 4.3 8.7 0.00 0.11 0.00 93 1006.7
20260510073140 50 192 4.3 7.0 0.00 0.11 0.00 93 1006.7
20260510072640 50 228 5.2 8.7 0.00 0.11 0.00 93 1006.5
20260510072139 50 207 4.3 8.7 0.00 0.11 0.00 92 1006.4
20260510071638 50 182 5.2 8.7 0.00 0.11 0.00 93 1006.3
20260510071138 50 219 5.2 9.6 0.00 0.11 0.00 93 1006.2
20260510070639 50 217 6.1 9.6 0.00 0.11 0.00 93 1006.3
20260510070139 50 223 6.1 9.6 0.00 0.11 0.00 93 1006.3
20260510065637 50 234 5.2 9.6 0.00 0.11 0.00 93 1006.3
20260510065130 50 221 5.2 10.4 0.00 0.11 0.00 93 1006.2
20260510064624 50 210 6.1 10.4 0.00 0.11 0.00 93 1006.0
20260510064117 51 212 5.2 11.3 0.00 0.11 0.00 93 1006.0
20260510063612 51 215 5.2 11.3 0.00 0.11 0.00 93 1005.8
20260510063105 51 215 5.2 9.6 0.00 0.11 0.00 93 1005.8
20260510062053 51 181 5.2 10.4 0.00 0.11 0.00 93 1006.0
20260510061550 51 219 5.2 9.6 0.00 0.11 0.00 93 1005.9
20260510061050 50 225 6.1 9.6 0.00 0.11 0.00 93 1006.0
20260510060547 51 184 7.0 12.2 0.00 0.11 0.00 93 1005.7
20260510060047 51 217 7.0 12.2 0.00 0.11 0.00 93 1005.8
20260510055046 51 243 6.1 12.2 0.00 0.11 0.00 94 1006.0
20260510054046 50 221 7.8 12.2 0.00 0.11 0.00 94 1006.0
20260510053544 50 232 8.7 13.0 0.00 0.11 0.00 94 1005.9
20260510053044 50 215 8.7 14.8 0.00 0.11 0.00 95 1006.0
20260510052543 50 219 7.8 14.8 0.00 0.11 0.00 95 1005.8
20260510052044 49 198 7.8 12.2 0.00 0.11 0.00 94 1005.8
20260510051544 49 196 8.7 13.0 0.00 0.11 0.00 94 1005.7
20260510051043 49 219 8.7 13.0 0.00 0.11 0.00 94 1005.6
20260510050544 50 200 8.7 12.2 0.00 0.11 0.00 94 1005.6
20260510050043 50 224 7.8 10.4 0.00 0.11 0.00 94 1005.5
20260510045544 50 213 7.8 12.2 0.00 0.11 0.00 94 1005.5
20260510045043 50 229 8.7 12.2 0.00 0.11 0.00 94 1005.4
20260510044032 50 234 7.8 12.2 0.00 0.11 0.00 94 1005.3
20260510043526 50 231 7.8 12.2 0.00 0.11 0.00 94 1005.2
20260510043020 50 225 7.8 13.0 0.00 0.11 0.00 94 1005.2
20260510042513 51 216 7.8 13.0 0.00 0.11 0.00 94 1005.1
20260510042007 51 226 7.8 12.2 0.00 0.11 0.00 94 1005.0
20260510041501 51 221 7.8 12.2 0.00 0.11 0.00 94 1005.0
20260510040956 51 217 8.7 12.2 0.00 0.11 0.00 95 1005.0
20260510035944 50 215 7.8 11.3 0.01 0.11 0.11 94 1004.8
20260510035437 50 196 7.8 12.2 0.01 0.11 0.11 93 1004.7
20260510034931 51 205 7.8 12.2 0.01 0.11 0.11 94 1004.7
20260510034426 51 213 7.8 10.4 0.01 0.11 0.11 94 1004.8
20260510033919 51 207 7.8 12.2 0.02 0.11 0.11 94 1004.7
20260510033414 51 224 7.8 13.9 0.02 0.11 0.11 93 1004.6
20260510032907 51 219 7.0 13.9 0.04 0.11 0.11 94 1004.6
20260510032401 50 203 6.1 8.7 0.06 0.11 0.11 94 1004.4
20260510031855 50 208 4.3 8.7 0.10 0.11 0.11 93 1004.5
20260510031350 50 0 3.5 7.0 0.11 0.11 0.11 93 1004.4
20260510030337 50 218 5.2 8.7 0.10 0.10 0.10 93 1004.2
20260510025832 50 185 7.0 10.4 0.10 0.10 0.10 92 1004.3
20260510025325 50 182 8.7 12.2 0.10 0.10 0.10 92 1004.4
20260510024819 50 192 8.7 13.0 0.10 0.10 0.10 91 1004.5
20260510024314 50 178 8.7 13.0 0.09 0.09 0.10 90 1004.5
20260510023807 51 190 9.6 14.8 0.09 0.09 0.09 88 1004.7
20260510023302 53 196 9.6 16.5 0.08 0.08 0.09 88 1004.7
20260510022755 55 0 6.1 16.5 0.07 0.07 0.07 87 1004.7
20260510022249 55 230 6.1 13.0 0.04 0.04 0.04 86 1004.8
20260510021743 55 215 8.7 13.0 0.01 0.01 0.01 85 1004.4
20260510021240 55 217 9.6 15.6 0.00 0.00 0.00 82 1003.9
20260510020732 55 188 10.4 18.2 0.00 0.00 0.00 81 1003.7
20260510020226 55 175 11.3 18.2 0.00 0.00 0.00 81 1003.5
20260510015719 56 0 10.4 17.4 0.00 0.00 0.00 81 1003.4
20260510015213 56 175 10.4 15.6 0.00 0.00 0.00 81 1003.3
20260510014201 55 167 9.6 14.8 0.00 0.00 0.00 81 1002.8
20260510013149 56 164 10.4 15.6 0.00 0.00 0.00 80 1003.3
20260510012643 56 178 10.4 15.6 0.00 0.00 0.00 79 1003.4
20260510012143 56 171 11.3 16.5 0.00 0.00 0.00 80 1003.4
20260510011143 56 165 9.6 15.6 0.00 0.00 0.00 80 1003.4
20260510010644 56 167 11.3 19.1 0.00 0.00 0.00 78 1003.3
20260510005643 56 171 11.3 19.1 0.00 0.00 0.00 78 1003.2
20260510005143 57 146 10.4 19.1 0.00 0.00 0.00 78 1003.2
20260510004644 57 184 10.4 17.4 0.00 0.00 0.00 77 1003.1
20260510004143 56 155 9.6 15.6 0.00 0.00 0.00 77 1003.1
20260510002643 57 165 7.8 12.2 0.00 0.00 0.00 77 1003.2
20260510001643 57 170 8.7 14.8 0.00 0.00 0.00 76 1003.1
20260510001139 57 179 7.8 14.8 0.00 0.00 0.00 76 1003.2
20260510000139 57 168 6.1 12.2 0.00 0.00 0.00 76 1003.2
20260509235639 57 157 6.1 10.4 0.00 0.00 0.00 77 1003.4
20260509235139 57 165 6.1 10.4 0.00 0.00 0.00 76 1003.5
20260509234638 57 164 5.2 10.4 0.00 0.00 0.00 76 1003.5
20260509234137 57 162 6.1 10.4 0.00 0.00 0.00 76 1003.6
20260509233637 57 171 6.1 9.6 0.00 0.00 0.00 75 1003.6
20260509232637 57 164 5.2 8.7 0.00 0.00 0.00 75 1003.8
20260509232137 57 162 6.1 10.4 0.00 0.00 0.00 75 1004.0
20260509231637 57 180 7.0 11.3 0.00 0.00 0.00 74 1003.9
20260509231136 57 171 7.0 11.3 0.00 0.00 0.00 76 1003.9
20260509230635 56 167 7.0 11.3 0.00 0.00 0.00 77 1004.0
20260509230135 57 183 7.8 11.3 0.00 0.00 0.00 75 1004.0
20260509225635 57 0 8.7 13.9 0.00 0.00 0.00 74 1004.0
20260509224136 56 173 7.8 13.9 0.00 0.00 0.00 75 1004.0
20260509223635 57 181 7.0 13.9 0.00 0.00 0.00 74 1004.1
20260509223135 56 196 7.0 14.8 0.00 0.00 0.00 75 1004.0
20260509222631 57 142 6.1 14.8 0.00 0.00 0.00 75 1003.9
20260509222132 56 175 4.3 9.6 0.00 0.00 0.00 75 1003.8
20260509221632 56 177 6.1 9.6 0.00 0.00 0.00 74 1003.8
20260509221131 56 162 7.0 10.4 0.00 0.00 0.00 73 1003.7
20260509220631 57 225 7.8 13.0 0.00 0.00 0.00 72 1003.8
20260509220131 57 171 7.8 13.0 0.00 0.00 0.00 71 1003.7
20260509215631 57 181 7.8 13.9 0.00 0.00 0.00 72 1003.7
20260509215131 57 178 7.8 13.9 0.00 0.00 0.00 71 1003.8
20260509214136 57 184 8.7 13.9 0.00 0.00 0.00 70 1003.9
20260509213632 57 179 7.8 11.3 0.00 0.00 0.00 71 1004.1
20260509213131 57 180 8.7 13.0 0.00 0.00 0.00 71 1004.1
20260509212632 58 182 8.7 13.0 0.00 0.00 0.00 70 1004.1
20260509212131 58 170 9.6 17.4 0.00 0.00 0.00 69 1004.1